This is the latest recevied weather packets stored in our database for station/object W8KHW. If no packets are shown the sender has not sent any weather packets the latest 10 day(s).
| Time | Temp. | Humidity | Pressure | Rain* | Wind** | Luminosity | Snow |
|---|---|---|---|---|---|---|---|
| 1778099538 | 13.89° C | 54% | 1013.5 hPa | 0 mm | - | - | - |
| 1778099038 | 14.44° C | 52% | 1013.3 hPa | 0 mm | - | - | - |
| 1778098537 | 14.44° C | 50% | 1013.2 hPa | 0 mm | - | - | - |
| 1778098037 | 13.89° C | 53% | 1013.1 hPa | 0 mm | - | - | - |
| 1778097537 | 13.89° C | 52% | 1012.9 hPa | 0 mm | - | - | - |
| 1778097037 | 13.89° C | 52% | 1013.3 hPa | 0 mm | - | - | - |
| 1778096536 | 14.44° C | 54% | 1013 hPa | 0 mm | - | - | - |
| 1778096036 | 14.44° C | 53% | 1013 hPa | 0 mm | - | - | - |
| 1778095536 | 14.44° C | 54% | 1012.9 hPa | 0 mm | - | - | - |
| 1778095036 | 14.44° C | 53% | 1013.2 hPa | 0 mm | - | - | - |
| 1778094535 | 15° C | 52% | 1012.8 hPa | 0 mm | - | - | - |
| 1778094035 | 15.56° C | 52% | 1013.1 hPa | 0 mm | - | - | - |
| 1778093535 | 15.56° C | 54% | 1012.9 hPa | 0 mm | - | - | - |
| 1778093035 | 15.56° C | 52% | 1012.8 hPa | 0 mm | - | - | - |
| 1778092535 | 15.56° C | 50% | 1012.8 hPa | 0 mm | - | - | - |
| 1778092035 | 15.56° C | 50% | 1013.1 hPa | 0 mm | - | - | - |
| 1778091535 | 16.11° C | 51% | 1013.1 hPa | 0 mm | - | - | - |
| 1778091035 | 15.56° C | 56% | 1013 hPa | 0 mm | - | - | - |
| 1778090534 | 15.56° C | 53% | 1013 hPa | 0 mm | - | - | - |
| 1778090034 | 15.56° C | 54% | 1013.1 hPa | 0 mm | - | - | - |
| 1778089534 | 15° C | 53% | 1013.1 hPa | 0 mm | - | - | - |
| 1778089034 | 15° C | 52% | 1013.2 hPa | 0 mm | - | - | - |
| 1778088534 | 15° C | 52% | 1013.2 hPa | 0 mm | - | - | - |
| 1778088034 | 16.11° C | 52% | 1013.2 hPa | 0 mm | - | - | - |
| 1778087533 | 15° C | 55% | 1012.9 hPa | 0 mm | - | - | - |
* Rain latest hour (hover to see other rain measurements)
** Current wind speed in m/s (hover to see current wind gust speed)